This is the latest recevied weather packets stored in our database for station/object VK3CG. If no packets are shown the sender has not sent any weather packets the latest 10 day(s).
| Time | Temp. | Humidity | Pressure | Rain* | Wind** | Luminosity | Snow |
|---|---|---|---|---|---|---|---|
| 1777581046 | 13.89° C | 54% | 1035.3 hPa | 0 mm | - | 0 W/m² | - |
| 1777580140 | 14.44° C | 54% | 1035.4 hPa | 0 mm | - | 0 W/m² | - |
| 1777578339 | 13.89° C | 54% | 1035.5 hPa | 0 mm | - | 0 W/m² | - |
| 1777577443 | 13.89° C | 55% | 1035.4 hPa | 0 mm | - | 0 W/m² | - |
| 1777576539 | 13.89° C | 55% | 1035.4 hPa | 0 mm | - | 0 W/m² | - |
| 1777575638 | 13.89° C | 55% | 1035.4 hPa | 0 mm | - | 0 W/m² | - |
| 1777571132 | 13.89° C | 55% | 1035.4 hPa | 0 mm | - | 0 W/m² | - |
| 1777570230 | 13.89° C | 55% | 1035.4 hPa | 0 mm | - | 0 W/m² | - |
| 1777569335 | 14.44° C | 54% | 1035.6 hPa | 0 mm | - | 0 W/m² | - |
| 1777568425 | 14.44° C | 53% | 1035.6 hPa | 0 mm | - | 0 W/m² | - |
| 1777566624 | 15.56° C | 52% | 1035.6 hPa | 0 mm | - | 0 W/m² | - |
| 1777565723 | 15.56° C | 52% | 1035.7 hPa | 0 mm | - | 0 W/m² | - |
| 1777564818 | 15.56° C | 52% | 1035.9 hPa | 0 mm | - | 0 W/m² | - |
| 1777563917 | 15.56° C | 52% | 1035.9 hPa | 0 mm | - | 0 W/m² | - |
| 1777563015 | 15.56° C | 52% | 1036 hPa | 0 mm | - | 0 W/m² | - |
| 1777561212 | 16.11° C | 51% | 1036 hPa | 0 mm | - | 0 W/m² | - |
| 1777560311 | 16.11° C | 51% | 1036 hPa | 0 mm | - | 0 W/m² | - |
| 1777559410 | 16.11° C | 51% | 1036.2 hPa | 0 mm | - | 0 W/m² | - |
| 1777554908 | 16.11° C | 50% | 1036.4 hPa | 0 mm | - | 0 W/m² | - |
| 1777554011 | 16.11° C | 49% | 1036.4 hPa | 0 mm | - | 0 W/m² | - |
| 1777551303 | 16.67° C | 46% | 1036.7 hPa | 0 mm | - | 0 W/m² | - |
| 1777547701 | 13.33° C | 55% | 1036.5 hPa | 0 mm | - | 0 W/m² | - |
| 1777545960 | 13.89° C | 55% | 1036.6 hPa | 0 mm | - | 0 W/m² | - |
| 1777545060 | 13.89° C | 54% | 1036.6 hPa | 0 mm | - | 0 W/m² | - |
| 1777544159 | 14.44° C | 54% | 1036.6 hPa | 0 mm | - | 0 W/m² | - |
* Rain latest hour (hover to see other rain measurements)
** Current wind speed in m/s (hover to see current wind gust speed)